Location: Stull Observatory
(42.2506°N, 77.7903°W)
Time: 04:57:59
(UTC-04:00)

Daily predictions for brighter satellites

Satellite Brightness Start Highest point End
(mag) Time Altitude Azimuth Time Altitude Azimuth Time Altitude Azimuth
CZ-4C R/B 4.2 03:29:15 34° ENE 03:29:15 34° ENE 03:34:35 10° ESE
USA 267 4.4 03:54:22 10° ESE 03:58:02 36° ESE 03:58:02 36° ESE
ADEOS II 3.3 04:21:55 10° NNE 04:25:34 38° NE 04:25:34 38° NE
Cosmos 1943 Rocket 3.4 04:29:43 34° NNE 04:29:43 34° NNE 04:32:49 10° NNE
Milstar 3 4.0 04:45:27 25° S 04:45:27 25° S 04:50:17 10° SE
SJ 16-02 4.2 04:48:24 10° SE 04:51:03 16° E 04:53:42 10° ENE
Cosmos 2298 Rocket 4.4 05:08:50 52° NNW 05:08:50 52° NNW 05:13:04 10° NNE
Nadezhda 1 Rocket 3.9 05:08:43 61° SW 05:09:45 73° W 05:16:08 10° N
USA 215 4.2 05:06:46 10° NE 05:12:25 33° NNW 05:13:34 31° NW
Cosmos 2369 Rocket 3.7 05:14:25 23° NNW 05:14:25 23° NNW 05:17:18 10° N
CZ-3 R/B 4.3 05:05:18 33° WSW 05:15:38 43° SW 05:26:04 10° SE
CZ-4C R/B 2.9 05:14:33 48° WNW 05:16:19 59° WSW 05:24:09 10° SSE
APEX 4.4 05:19:08 38° SSE 05:19:08 38° SSE 05:22:10 10° SSE
OAO 2 Rocket 4.3 05:18:17 34° S 05:18:17 34° S 05:22:24 10° ESE
Okean O Rocket 1.5 05:23:48 10° NNE 05:28:13 88° WNW 05:29:16 53° SSW
NOSS 3-1 (C) 3.3 05:27:29 33° SSW 05:30:15 81° ESE 05:36:41 10° NE
Lacrosse 5 3.7 05:31:18 17° NNW 05:31:56 17° NNW 05:35:18 10° NNE
Meteor 1-31 Rocket 3.6 05:28:31 10° NNE 05:32:14 49° E 05:35:55 10° S
USA 229 DEB 3.8 05:30:27 43° W 05:32:16 55° NW 05:39:07 10° NNE
USA 229 3.8 05:30:31 43° W 05:32:22 56° NW 05:39:12 10° NNE
Cosmos-2242 3.2 05:29:36 10° N 05:33:55 72° E 05:38:12 10° SSE
NOSS 3-1 (A) 3.7 05:31:55 17° SSW 05:36:22 65° ESE 05:42:43 10° NE
Tiangong 2 2.8 05:38:00 25° SSE 05:38:00 25° SSE 05:39:45 10° SE
Cosmos 1758 Rocket 3.5 05:37:04 60° W 05:37:06 60° W 05:41:34 10° N
Cosmos 1707 3.4 05:40:32 40° NNW 05:40:32 40° NNW 05:43:17 10° N
Cosmos 2219 3.2 05:35:42 10° NNW 05:41:24 82° ENE 05:47:02 10° SSE
USA 81 4.5 05:36:46 10° S 05:41:58 64° E 05:47:12 10° N
Cosmos 1378 4.0 05:43:37 35° NNW 05:43:37 35° NNW 05:46:04 10° N
Cosmos 2154 Rocket 4.1 05:37:16 10° NNW 05:43:24 53° W 05:49:28 10° SSW
Okean-O 4.5 05:39:27 10° NNE 05:43:27 32° E 05:47:24 10° SSE
BREEZE-M DEB (TANK) 2.9 05:42:44 48° WSW 05:43:52 80° NNW 05:54:12 10° ENE
USA 267 3.8 05:38:16 10° SSE 05:44:08 35° SW 05:45:24 32° WSW
CZ-2C R/B 3.9 05:42:36 10° SSE 05:47:20 78° ENE 05:52:04 10° N
Cosmos 2297 Rocket 3.9 05:46:35 10° N 05:51:40 33° NE 05:56:42 10° ESE
Cosmos 1656 Rocket 4.0 05:49:54 34° WSW 05:51:47 46° WNW 05:57:14 10° NNE
SL-8 Rocket 4.0 05:47:40 10° N 05:54:02 85° E 06:00:22 10° S
Meteor 2-5 Rocket 3.7 05:49:22 10° SSW 05:55:16 75° W 06:01:07 10° N
COSMO-SKYMED 1 3.9 05:51:53 10° SE 05:55:57 41° ENE 06:00:02 10° N
PAYLOAD B 4.2 05:51:00 10° N 05:56:23 56° WNW 06:01:46 10° SSW
Meteor 2-21 4.3 05:50:27 10° NNW 05:56:30 73° W 06:02:33 10° S
Cosmos 1269 Rocket 4.1 05:55:22 10° NNW 06:00:42 81° ENE 06:06:01 10° SSE
CZ-4B DEB 4.3 05:56:10 10° N 06:01:30 54° WNW 06:06:50 10° SW
EO 1 Del DPAF 3.7 05:58:59 10° SSE 06:02:45 61° ENE 06:06:33 10° N
Cosmos 1356 3.7 05:59:49 10° S 06:03:16 68° E 06:06:45 10° NNE
SJ-6F 4.3 06:00:04 10° N 06:04:10 84° WNW 06:08:13 10° SSW
ADEOS II 3.2 06:02:23 10° NNW 06:06:23 23° WNW 06:06:30 23° WNW
Meteor 1-16 Rocket 4.3 06:01:30 10° NNW 06:07:02 57° W 06:12:43 10° S
Cosmos 372 Rocket 3.9 06:04:32 10° SSW 06:09:44 75° WNW 06:15:00 10° NNE
Cosmos 1842 Rocket 3.8 06:05:34 10° N 06:09:55 72° E 06:14:15 10° SSE
Cosmos 1943 Rocket 3.7 06:11:16 16° NW 06:11:45 16° NW 06:15:10 10° N
Landsat 4 3.9 06:11:28 10° S 06:15:07 46° W 06:18:46 10° NNW
CZ-4B R/B 3.5 06:10:03 10° N 06:15:12 45° WNW 06:20:27 10° SW
IDEFIX/ARIANE 42P 3.9 06:12:15 10° NNE 06:17:15 43° E 06:22:11 10° S
Meteor 2-14 Rocket 4.4 06:13:05 10° NNW 06:19:03 62° W 06:25:01 10° S
Cosmos 2218 Rocket 3.9 06:14:34 10° NNW 06:20:47 73° W 06:27:03 10° S
Meteor 2-16 Rocket 4.4 06:17:34 10° NNW 06:23:41 68° W 06:29:46 10° S
Cosmos 1125 Rocket 3.7 06:19:26 10° SW 06:24:32 51° WNW 06:29:42 10° N
DELTA 2 R/B(2) 4.4 06:24:11 27° WSW 06:25:06 44° S 06:28:22 10° ESE
ERBS 2.5 06:24:42 19° WNW 06:26:55 54° SW 06:30:18 10° SSE
Meteor 1-28 Rocket 3.4 06:23:15 10° S 06:26:57 49° W 06:30:40 10° NNW
SJ 16-02 1.6 06:25:00 10° SW 06:29:13 46° WNW 06:33:28 10° N
NOAA 6 4.0 06:24:28 10° NNE 06:29:41 86° WNW 06:34:50 10° SSW
Cosmos 1356 Rocket 4.5 06:29:06 10° SW 06:32:43 26° WNW 06:36:22 10° NNW
Cosmos 494 Rocket 4.4 06:29:05 10° NNW 06:34:15 66° ENE 06:39:25 10° SSE
MTI 4.4 06:32:17 10° SSW 06:35:18 35° W 06:38:20 10° NNW
Nadezhda 3 Rocket 4.4 06:36:16 10° S 06:42:33 71° E 06:48:48 10° NNE
SKYMED 2 3.6 06:39:39 10° S 06:43:56 59° W 06:48:14 10° NNW
Cosmos 2278 4.0 06:39:53 10° SSW 06:45:30 76° ESE 06:51:10 10° NNE
Cosmos 1076 Rocket 4.4 06:44:41 10° S 06:48:56 56° E 06:53:12 10° NNE
DMSP B5D1-3 4.5 06:44:50 10° SSE 06:49:55 84° WSW 06:55:03 10° NNW
Cosmos 2251 Rocket 3.9 06:47:28 10° NNW 06:52:52 71° ENE 06:58:13 10° SSE
CZ-2C R/B 2.8 06:48:26 10° NNE 06:53:24 74° ESE 06:58:30 10° S
DEBRIS 4.2 06:47:08 10° W 06:54:40 35° NNW 06:57:33 10° NE
Meteor 1-24 Rocket 4.3 06:50:24 10° SW 06:55:57 38° WNW 07:01:28 10° N
Cosmos 2227 Rocket 2.2 06:52:31 10° NNW 06:58:09 66° WSW 07:03:45 10° S
Cosmos 1674 2.7 06:56:14 10° SSW 06:59:53 53° W 07:03:33 10° N
